Regional Weather Roundup
Issued by NWS

Home | Current Version | Previous Version | Graphics & Text | Print | Product List | Glossary On
Versions: 1 2 3 4 5 6 7 8 9 10 11 12 13 14 15 16 17 18 19 20 21 22 23 24 25 26 27 28 29 30 31 32 33 34 35 36 37 38 39 40 41 42 43 44 45 46 47 48 49 50
000
ASUS44 KMEG 281510
RWRTN
TENNESSEE HOURLY STATE WEATHER ROUNDUP
NATIONAL WEATHER SERVICE MEMPHIS TN
1000 AM CDT FRI AUG 28 2015

TNZ002-004-019-021-049-052-054-088>092-281600-
WEST TENNESSEE

CITY           SKY/WX    TMP DP  RH WIND       PRES   REMARKS
MEMPHIS INTL   MOSUNNY   79  62  56 E3        30.09S
NWS MEMPHIS      N/A     77 N/A N/A MISG        N/A
JACKSON        SUNNY     75  64  68 VRB3      30.11S
DYERSBURG      SUNNY    N/A N/A N/A MISG        N/A
UNION CITY     SUNNY     73  64  73 CALM      30.10S
PARIS          SUNNY     73  61  64 SE7       30.13S
LEXINGTON      SUNNY     75  64  69 VRB3      30.12R
$$

TNZ008-025-027-028-033-062-065-066-281600-
NORTH MIDDLE TENNESSEE

CITY           SKY/WX    TMP DP  RH WIND       PRES   REMARKS
NASHVILLE      MOSUNNY   75  60  59 CALM      30.16R
CLARKSVILLE    SUNNY     74  60  61 VRB5      30.14S
SMYRNA         MOSUNNY   78  63  60 CALM      30.16S
COOKEVILLE     SUNNY     81  70  69 S7        30.18R
CROSSVILLE     SUNNY     77  63  61 VRB5      30.23R
$$

TNZ061-075-076-078-094-096-097-281600-
SOUTH MIDDLE TENNESSEE

CITY           SKY/WX    TMP DP  RH WIND       PRES   REMARKS
FAYETTEVILLE   SUNNY     75  64  69 SE3       30.15S
TULLAHOMA      SUNNY     77  64  65 SE8       30.18R
WINCHESTER     SUNNY     77  66  69 S8        30.17R
MCMINNVILLE    SUNNY     79  70  73 VRB3      30.18R
COLUMBIA       SUNNY     77  70  78 VRB3      30.13S
SHELBYVILLE    SUNNY     79  68  69 SE8       30.16S
$$

TNZ017-018-042-046-047-281600-
NORTHEAST TENNESSEE

CITY           SKY/WX    TMP DP  RH WIND       PRES   REMARKS
TRI CITIES     MOSUNNY   74  62  66 CALM      30.23S
ELIZABETHTON   SUNNY     73  61  64 VRB3      30.24S
$$

TNZ012-013-036-069-073-074-281600-
CENTRAL EAST TENNESSEE

CITY           SKY/WX    TMP DP  RH WIND       PRES   REMARKS
KNOXVILLE      MOSUNNY   79  62  56 CALM      30.19R
OAK RIDGE      SUNNY     76  61  59 CALM      30.21R
GATLINBURG     SUNNY     75  61  60 VRB5      30.19S
MORRISTOWN     SUNNY     77  63  61 CALM      30.22R
$$

TNZ083-085-099-281600-
SOUTHEAST TENNESSEE

CITY           SKY/WX    TMP DP  RH WIND       PRES   REMARKS
CHATTANOOGA    PTSUNNY   76  64  66 NE6       30.18S
$$

SKY/WX REPORTED AS FAIR MEANS FEW OR NO CLOUDS BELOW
12 THOUSAND FEET.



USA.gov is the U.S. government's official web portal to all federal, state and local government web resources and services.